User: anonymous   Login
Location: Arpaise
(41.0333°N, 14.7333°E)
Time: 07:12:32
(UTC+00:00)
Language:

Cosmos 1125 Rocket - Orbit

View from above orbital plane
View from above orbital plane
View from above satellite
View from above satellite

Ground track
Ground track

The orbit data is extracted from the following two-line orbital elements,

1 11511U 79078B   20273.71619641 +.00000117 +00000-0 +48545-4 0  9998
2 11511 074.0342 268.4918 0016502 222.8250 137.1618 14.36896882150754
Epoch (UTC): 29 September 2020 17:11:19
Eccentricity: 0.0016502
inclination: 74.0342°
perigee height: 757 km
apogee height: 780 km
right ascension of ascending node: 268.4918°
argument of perigee: 222.8250°
revolutions per day: 14.36896882
mean anomaly at epoch: 137.1618°
orbit number at epoch: 15075

The dashed part of the orbit path shows where the satellite is in the earth's shadow,  

DLR